Change the Weather History Date:

Sunday, September 30, 2012

  Actual Average Record
Temperature  
Mean Temperature 65 °F 56 °F  
Max Temperature 81 °F 69 °F 98 °F (1980)
Min Temperature 49 °F 43 °F 23 °F (1974)
Degree Days  
Heating Degree Days 0 10  
Month to date heating degree days 102 151  
Since 1 July heating degree days 108 171  
Cooling Degree Days 0 1  
Month to date cooling degree days 91 86  
Year to date cooling degree days 1112 863  
Growing Degree Days 16 (Base 50)    
Moisture  
Dew Point 42 °F    
Average Humidity 46    
Maximum Humidity 63    
Minimum Humidity 28    
Precipitation  
Precipitation T in 0.06 in 1.02 in (1911)
Month to date precipitation T 1.87  
Year to date precipitation 10.11 17.05  
Sea Level Pressure  
Sea Level Pressure 29.93 in    
Wind  
Wind Speed 10 mph (NNE)    
Max Wind Speed 30 mph    
Max Gust Speed 39 mph    
Visibility 10 miles    
Events      
T = Trace of Precipitation, MM = Missing Value Source: NWS Daily Summary

Daily Weather History Graph

Daily Weather History Graph

Search for Another Location

Airport or City:

Trip Planner

Search our weather history database for the weather conditions in past years. The results will help you decide how hot, cold, wet, or windy it might be!

Date:

Astronomy

Sep. 30, 2012 Rise Set
Actual Time 7:38 AM CDT 7:22 PM CDT
Civil Twilight 7:09 AM CDT 7:51 PM CDT
Nautical Twilight 6:35 AM CDT 8:25 PM CDT
Astronomical Twilight 6:01 AM CDT 8:59 PM CDT
Moon 7:23 PM CDT (9/30) 8:14 AM CDT (9/30)
Length of Visible Light 12h 42m
Length of Day
11h 44m
Full, 100% of the Moon is Illuminated
Sep 30
Full
Oct 8
Last Quarter
Oct 15
New
Oct 21
First Quarter
Oct 29
Full

Hourly Weather History & Observations

Time (CDT) Temp. Dew Point Humidity Pressure Visibility Wind Dir Wind Speed Gust Speed Precip Events Conditions
12:53 AM 63.0 °F 34.0 °F 34% 29.93 in 10.0 mi SE 10.4 mph - N/A   Clear
1:53 AM 55.9 °F 34.0 °F 44% 29.92 in 10.0 mi ESE 6.9 mph - N/A   Clear
2:53 AM 55.9 °F 36.0 °F 47% 29.92 in 10.0 mi ESE 8.1 mph - N/A   Clear
3:53 AM 55.0 °F 37.0 °F 51% 29.91 in 10.0 mi SE 5.8 mph - N/A   Clear
4:53 AM 53.1 °F 39.0 °F 59% 29.91 in 10.0 mi ESE 5.8 mph - N/A   Clear
5:53 AM 52.0 °F 39.0 °F 61% 29.90 in 10.0 mi SE 4.6 mph - N/A   Clear
6:53 AM 53.1 °F 39.9 °F 61% 29.91 in 10.0 mi SSE 5.8 mph - N/A   Clear
7:53 AM 54.0 °F 39.9 °F 59% 29.93 in 10.0 mi Calm Calm - N/A   Clear
8:53 AM 57.0 °F 41.0 °F 55% 29.94 in 10.0 mi Calm Calm - N/A   Clear
9:53 AM 62.1 °F 41.0 °F 46% 29.94 in 10.0 mi West 4.6 mph - N/A   Clear
10:53 AM 66.9 °F 42.1 °F 40% 29.93 in 10.0 mi WNW 3.5 mph - N/A   Clear
11:53 AM 72.0 °F 45.0 °F 38% 29.93 in 10.0 mi Calm Calm - N/A   Clear
12:53 PM 78.1 °F 46.0 °F 32% 29.93 in 10.0 mi WNW 16.1 mph 21.9 mph N/A   Partly Cloudy
1:53 PM 78.1 °F 42.1 °F 28% 29.93 in 10.0 mi NNW 17.3 mph 25.3 mph N/A   Scattered Clouds
2:53 PM 75.9 °F 43.0 °F 31% 29.92 in 10.0 mi North 19.6 mph 25.3 mph N/A   Partly Cloudy
3:53 PM 73.9 °F 46.0 °F 37% 29.91 in 10.0 mi North 10.4 mph - 0.00 in   Mostly Cloudy
4:53 PM 80.1 °F 44.1 °F 28% 29.90 in 10.0 mi NNE 17.3 mph - 0.00 in   Clear
5:53 PM 75.9 °F 44.1 °F 32% 29.90 in 10.0 mi NNE 10.4 mph - N/A   Clear
6:53 PM 72.0 °F 46.0 °F 40% 29.89 in 10.0 mi North 9.2 mph - N/A   Clear
7:53 PM 70.0 °F 46.0 °F 42% 29.93 in 10.0 mi North 12.7 mph - N/A   Clear
8:53 PM 68.0 °F 46.0 °F 45% 29.98 in 10.0 mi NW 13.8 mph - N/A   Mostly Cloudy
11:53 PM 59.0 °F 50.0 °F 72% 30.00 in 10.0 mi NNW 9.2 mph - 0.00 in   Partly Cloudy